This is the latest recevied weather packets stored in our database for station/object K4PAD. If no packets are shown the sender has not sent any weather packets the latest 10 day(s).
| Time | Temp. | Humidity | Pressure | Rain* | Wind** | Luminosity | Snow |
|---|---|---|---|---|---|---|---|
| 1788522979 | 25° C | 99% | 1016.8 hPa | 0 mm | - | 32 W/m² | - |
| 1788522674 | 25° C | 99% | 1016.5 hPa | 0 mm | - | 29 W/m² | - |
| 1788522368 | 25° C | 99% | 1016.7 hPa | 0 mm | - | 30 W/m² | - |
| 1788522063 | 25° C | 99% | 1016.7 hPa | 0 mm | - | 29 W/m² | - |
| 1788521762 | 25° C | 99% | 1016.7 hPa | 0 mm | - | 24 W/m² | - |
| 1788521456 | 25° C | 99% | 1016.5 hPa | 0 mm | - | 18 W/m² | - |
| 1788521152 | 24.44° C | 99% | 1016.6 hPa | 0 mm | - | 11 W/m² | - |
| 1788520848 | 24.44° C | 99% | 1016.6 hPa | 0 mm | - | 7 W/m² | - |
| 1788520543 | 24.44° C | 99% | 1016.5 hPa | 0 mm | - | 5 W/m² | - |
| 1788520238 | 24.44° C | 99% | 1016.5 hPa | 0 mm | - | 3 W/m² | - |
| 1788519933 | 24.44° C | 99% | 1016.3 hPa | 0 mm | - | 2 W/m² | - |
| 1788519628 | 24.44° C | 99% | 1016.1 hPa | 0 mm | - | 1 W/m² | - |
| 1788519322 | 24.44° C | 99% | 1016.3 hPa | 0 mm | - | 0 W/m² | - |
| 1788519017 | 24.44° C | 99% | 1016.3 hPa | 0 mm | - | 0 W/m² | - |
| 1788518713 | 24.44° C | 99% | 1016.2 hPa | 0 mm | - | 0 W/m² | - |
| 1788518408 | 24.44° C | 99% | 1016.3 hPa | 0 mm | - | 0 W/m² | - |
| 1788518103 | 24.44° C | 99% | 1016.3 hPa | 0 mm | - | 0 W/m² | - |
| 1788517794 | 24.44° C | 99% | 1016.3 hPa | 0 mm | - | 0 W/m² | - |
| 1788517490 | 24.44° C | 99% | 1016.3 hPa | 0 mm | - | 0 W/m² | - |
| 1788517184 | 24.44° C | 98% | 1016.1 hPa | 0 mm | - | 0 W/m² | - |
| 1788516882 | 24.44° C | 99% | 1016.2 hPa | 0 mm | - | 0 W/m² | - |
| 1788516577 | 24.44° C | 98% | 1016.2 hPa | 0 mm | - | 0 W/m² | - |
| 1788516272 | 24.44° C | 98% | 1015.9 hPa | 0 mm | - | 0 W/m² | - |
| 1788515967 | 24.44° C | 98% | 1016.1 hPa | 0 mm | - | 0 W/m² | - |
| 1788515661 | 24.44° C | 98% | 1016.2 hPa | 0 mm | - | 0 W/m² | - |
* Rain latest hour (hover to see other rain measurements)
** Current wind speed in m/s (hover to see current wind gust speed)